Content
SEND FEEDBACK

Daily
Averages
Monthly
Summary
Switzerland

ZERMATT, SWITZERLAND


Home > Europe > Switzerland
Elevation: 5282 feet     Latitude: 46 01N     Longitude: 007 45E

WEATHER
 
SELECT A DAY
Number of Records: 140,496;   Date Range: 7/1/96 - 12/16/14
 
SHARE

PRINT THIS DATA

[ ← Previous Day ]
WEATHER ALMANAC - FEBRUARY 28, 2013
[ Next Day → ]
[ °C ]   °F
Weather ElementAverageHighLow
Temperature8.7 °F12.2 °F (11:55 am)5 °F (7:55 pm)
Dewpoint0.7 °F6.8 °F (2:55 am)-16.6 °F (11:55 pm)
Humidity68.4 %92 % (3:55 am)27 % (10:00 pm)
Barometer29.98 in30.01 in (1:55 am)29.95 in (4:55 am)
Wind Speed8 mph25.3 mph (11:55 pm)
Weather ElementAverage
Visibility1.4 mi
Wind DirectionSSE (150.7 °)

Weather ElementTotal
Precipitation---
Heating Degree Days56.4 (Base 65)
Averaged from 29 records on February 28, 2013
WEATHER CONDITIONS BREAKOUT
WIND DIRECTION BREAKOUT
WEATHER BY HOUR - FEBRUARY 28, 2013
[ °C ]   °F
Local TimeTemperatureDewpointHumidityBarometerVisibilityWind DirectionWind SpeedGust SpeedPrecipitationEventsConditions
1:00 AM9.0 °F6.0 °F80 %0.0 miWest (280°)4.6 mphSnowLight Snow
1:55 AM8.6 °F5.0 °F85 %30.01 in0.1 miSW (220°)3.5 mphFog-SnowLight Snow
2:55 AM10.4 °F6.8 °F85 %30.01 in0.1 miWest (280°)5.8 mphFog-SnowLight Snow
3:55 AM8.6 °F6.8 °F92 %29.98 in0.1 miESE (120°)4.6 mphFog-SnowLight Snow
4:00 AM9.0 °F6.0 °F81 %0.0 miESE (120°)4.6 mphSnowLight Snow
4:55 AM8.6 °F5.0 °F85 %29.95 in0.1 miWest (270°)3.5 mphFog-SnowLight Snow
6:55 AM6.8 °F1.4 °F79 %29.95 in0.5 miESE (120°)5.8 mphFogLight Freezing Fog
7:00 AM8.0 °F2.0 °F65 %0.0 miESE (120°)5.8 mphFogHeavy Fog
7:55 AM6.8 °F1.4 °F79 %29.98 in0.5 miSouth (190°)3.5 mphFogLight Freezing Fog
8:55 AM6.8 °F1.4 °F79 %29.98 in0.5 miEast (90°)3.5 mphFogLight Freezing Fog
9:55 AM10.4 °F5.0 °F79 %29.98 in0.5 miVariable2.3 mphFogLight Freezing Fog
10:00 AM10.0 °F4.0 °F68 %0.0 mi°2.3 mphFogHeavy Fog
10:55 AM10.4 °F5.0 °F79 %30.01 in0.5 miVariable2.3 mphFogLight Freezing Fog
11:55 AM12.2 °F5.0 °F73 %29.98 in0.2 miSSW (200°)4.6 mphFog-SnowLight Snow
12:55 PM12.2 °F3.2 °F67 %30.01 in0.2 miSouth (190°)6.9 mphFog-SnowLight Snow
1:00 PM11.0 °F4.0 °F62 %0.0 miSouth (190°)6.9 mphSnowLight Snow
1:55 PM10.4 °F3.2 °F73 %29.98 in1.2 miSouth (190°)6.9 mphScattered Clouds
2:55 PM10.4 °F3.2 °F73 %29.98 in0.9 miSouth (170°)8.1 mphScattered Clouds
3:55 PM10.4 °F3.2 °F73 %29.98 in1.2 miSSE (150°)8.1 mphMist
4:00 PM10.0 °F3.0 °F63 %1.0 miSSE (150°)8.1 mphMist
4:55 PM10.4 °F1.4 °F67 %29.95 in6.2 miSE (130°)10.4 mphMist
5:55 PM8.6 °F-2.2 °F62 %29.95 in6.2 miEast (100°)9.2 mphScattered Clouds
6:55 PM6.8 °F-4.0 °F61 %29.95 inESE (120°)13.8 mphClear
7:00 PM6.0 °F-3.0 °F51 %6.0 miESE (120°)13.8 mphPartly Cloudy
7:55 PM5.0 °F-4.0 °F66 %29.98 inSSE (160°)6.9 mphClear
8:55 PM5.0 °F-9.4 °F52 %29.95 inESE (110°)20.7 mphClear
9:55 PM6.8 °F-11.2 °F44 %29.98 inSSE (150°)15.0 mphClear
10:00 PM6.0 °F-12.0 °F27 %7.0 miSSE (150°)15.0 mph
11:55 PM6.8 °F-16.6 °F34 %29.95 inSE (130°)25.3 mphClear
Hourly data recorded from LIMH, located miles away from Zermatt, Switzerland







STORIES FROM OUR PARTNERS